Content
SEND FEEDBACK

Daily
Averages
Monthly
Summary
United States of America

WILMINGTON, NORTH CAROLINA


Home > North America > United States > North Carolina
Elevation: 72 feet     Latitude: 34 16N     Longitude: 077 54W

WEATHER
 
SELECT A DAY
Number of Records: 212,284;   Date Range: 1/1/95 - 10/20/14
 
SHARE

PRINT THIS DATA

[ ← Previous Day ]
WEATHER ALMANAC - FEBRUARY 11, 2013
[ Next Day → ]
[ °C ]   °F
Weather ElementAverageHighLow
Temperature62.9 °F66.9 °F (2:53 pm)53.1 °F (1:53 am)
Dewpoint58.5 °F61 °F (10:53 am)50 °F (1:53 am)
Humidity85.5 %94 % (10:15 am)76 % (2:53 pm)
Barometer30.08 in30.27 in (1:53 am)29.99 in (9:53 pm)
Wind Speed13.9 mph23 mph (3:12 pm)
Wind Gust35.7 mph (3:12 pm)
Weather ElementAverage
Visibility9.6 mi
Wind DirectionSSW (212.5 °)

Weather ElementTotal
Precipitation0.15 in
Heating Degree Days5 (Base 65)
Growing Degree Days10 (Base 50)
Averaged from 32 records on February 11, 2013
WEATHER CONDITIONS BREAKOUT
WIND DIRECTION BREAKOUT
WEATHER BY HOUR - FEBRUARY 11, 2013
[ °C ]   °F
Local TimeTemperatureDewpointHumidityBarometerVisibilityWind DirectionWind SpeedGust SpeedPrecipitationEventsConditions
1:53 AM53.1 °F50.0 °F89 %30.27 in10.0 miSE (130°)3.5 mph0.00 inRainLight Rain
2:53 AM57.9 °F52.0 °F81 %30.21 in10.0 miSSE (160°)12.7 mph0.01 inRainLight Rain
3:53 AM60.1 °F53.1 °F78 %30.17 in10.0 miSouth (180°)12.7 mph21.9 mph0.01 inRainLight Rain
4:53 AM60.1 °F54.0 °F80 %30.16 in10.0 miSouth (170°)12.7 mph0.01 inRainLight Rain
5:53 AM60.1 °F55.0 °F83 %30.14 in10.0 miSouth (180°)19.6 mph23.0 mph0.02 inMostly Cloudy
6:53 AM62.1 °F55.9 °F80 %30.15 in10.0 miSouth (190°)18.4 mph25.3 mph0.00 inOvercast
7:53 AM63.0 °F57.0 °F81 %30.15 in10.0 miSouth (190°)13.8 mph20.7 mph0.01 inRainLight Rain
8:53 AM63.0 °F57.9 °F84 %30.15 in10.0 miSSW (200°)12.7 mph21.9 mph0.00 inRainLight Rain
9:53 AM63.0 °F59.0 °F87 %30.14 in10.0 miSSW (200°)15.0 mph20.7 mph0.01 inRainLight Rain
10:15 AM62.6 °F60.8 °F94 %30.14 in5.0 miSSW (200°)15.0 mph20.7 mph0.00 inRainLight Rain
10:46 AM62.6 °F60.8 °F94 %30.14 in5.0 miSSW (210°)15.0 mph20.7 mph0.02 inRainLight Rain
10:53 AM64.0 °F61.0 °F90 %30.13 in6.0 miSSW (210°)15.0 mph21.9 mph0.02 inRainLight Rain
11:35 AM64.4 °F60.8 °F88 %30.12 in10.0 miSW (220°)13.8 mph21.9 mph0.00 inRainLight Rain
11:53 AM64.0 °F61.0 °F90 %30.11 in10.0 miSSW (210°)11.5 mph0.01 inRainLight Rain
12:53 PM64.9 °F61.0 °F87 %30.08 in10.0 miSW (220°)12.7 mph26.5 mph0.00 inOvercast
1:53 PM64.0 °F60.1 °F87 %30.04 in10.0 miSW (220°)17.3 mph26.5 mph0.01 inRainLight Rain
2:02 PM64.4 °F60.8 °F88 %30.03 in10.0 miSSW (200°)20.7 mph29.9 mph0.00 inRainLight Rain
2:53 PM66.9 °F59.0 °F76 %30.04 in10.0 miSW (230°)20.7 mph26.5 mph0.00 inOvercast
3:12 PM66.2 °F59.0 °F78 %30.04 in10.0 miSW (230°)23.0 mph35.7 mphOvercast
3:53 PM66.0 °F60.1 °F81 %30.04 in10.0 miSW (230°)16.1 mph23.0 mphOvercast
4:03 PM66.2 °F60.8 °F83 %30.03 in10.0 miSW (230°)15.0 mph23.0 mphOvercast
4:53 PM64.9 °F60.1 °F84 %30.02 in10.0 miSW (220°)9.2 mphPartly Cloudy
5:46 PM64.4 °F60.8 °F88 %30.02 in10.0 miSSW (210°)12.7 mphScattered Clouds
5:53 PM64.0 °F60.1 °F87 %30.02 in10.0 miSSW (200°)12.7 mph20.7 mphPartly Cloudy
6:53 PM64.0 °F60.1 °F87 %30.03 in10.0 miSW (230°)12.7 mphMostly Cloudy
7:53 PM63.0 °F60.1 °F90 %30.04 in10.0 miSW (220°)9.2 mph0.00 inRainLight Rain
8:53 PM63.0 °F60.1 °F90 %30.00 in10.0 miSSW (200°)16.1 mph0.01 inMostly Cloudy
9:53 PM62.1 °F59.0 °F90 %29.99 in10.0 miSW (230°)9.2 mphScattered Clouds
10:53 PM62.1 °F57.9 °F86 %30.01 in10.0 miWest (280°)12.7 mph0.00 inRainLight Rain
11:00 PM62.6 °F57.2 °F82 %30.02 in10.0 miWNW (290°)10.4 mph0.00 inRainLight Rain
11:17 PM62.6 °F59.0 °F88 %30.00 in10.0 miWest (270°)11.5 mph0.00 inOvercast
11:53 PM62.1 °F57.9 °F86 %30.01 in10.0 miWSW (240°)12.7 mph0.01 inRainLight Rain
Hourly data recorded from KILM, located miles away from Wilmington, North Carolina







STORIES FROM OUR PARTNERS